Skip Page Navigation
NASA JPL Caltech
NASA Logo - Jet Propulsion Laboratory + View the NASA Portal
+ Center for Near-Earth Object Studies
JPL Home Earth Solar System Stars & Galaxies Technology
JPL Solar System Dynamics
BODIES ORBITS EPHEMERIDES TOOLS PHYSICAL DATA DISCOVERY FAQ SITE MAP
IMPORTANT: The SSD Announcement email list is now available. Major changes are coming in the near future, including possible hostname and/or URL changes. To be notified of such changes, subscribe to this email list.

Please visit this page for more details.


JPL Small-Body Database Browser
Search: [ help ]  
305489 (2008 EN13)
Classification: Main-belt Asteroid          SPK-ID: 2305489
Ephemeris | Orbit Diagram | Orbital Elements | Mission Design | Physical Parameters | Discovery Circumstances | Close-Approach Data ]

[ show orbit diagram ]
Orbital Elements at Epoch 2458600.5 (2019-Apr-27.0) TDB
Reference: JPL 9 (heliocentric ecliptic J2000)
 Element Value Uncertainty (1-sigma)   Units 
e .04799224967899819 6.0134e-08  
a 3.075305491677173 3.3596e-08 au
q 2.927714662681408 1.7665e-07 au
i 11.0377506625547 7.2926e-06 deg
node 16.22947414881734 2.699e-05 deg
peri 63.26596260130897 7.8156e-05 deg
M 111.216899119406 7.1137e-05 deg
tp 2457991.946024418418
(2017-Aug-26.44602442)
0.0003908 TDB
period 1969.839412391446
5.39
3.2279e-05
8.838e-08
d
yr
n .1827560143915228 2.9947e-09 deg/d
Q 3.222896320672938 3.5208e-08 au
  Orbit Determination Parameters
   # obs. used (total)      235  
   data-arc span      6736 days (18.44 yr)  
   first obs. used      2000-11-30  
   last obs. used      2019-05-11  
   planetary ephem.      DE431  
   SB-pert. ephem.      SB431-N16  
   condition code      0  
   norm. resid. RMS      .60936  
   source      ORB  
   producer      Otto Matic  
   solution date      2019-May-30 09:08:16  

Additional Information
 Earth MOID = 1.96069 au 
 Jupiter MOID = 1.92115 au 
 T_jup = 3.199 
[ show covariance matrix ]

Ephemeris | Orbit Diagram | Orbital Elements | Mission Design | Physical Parameters | Discovery Circumstances | Close-Approach Data ]

Physical Parameter Table
Parameter Symbol Value Units Sigma Reference Notes
absolute magnitude H 15.7   n/a MPO433969  

305489 (2008 EN13)          Discovered 2008-Mar-01 by Spacewatch at Kitt Peak
Reference: 20111110/Numbers.arcLast Updated: 2011-11-14

[ show close-approach data ]
Ephemeris | Orbit Diagram | Orbital Elements | Mission Design | Physical Parameters | Discovery Circumstances | Close-Approach Data ]
ABOUT SSD CREDITS/AWARDS PRIVACY/COPYRIGHT GLOSSARY LINKS
FirstGov
(server date/time)  
NASA Home Page
Site Manager:   Ryan S. Park
Webmaster  Alan B. Chamberlin